Theta_e
343 342 342 342 344 344 344 343 342 342 341 341 341 341 341 341 340 340 339 339 338 337 338 337 337 336 335 334 334 335 335 335 334 333 334 335 335 335 335 334 333 334 335 336 336 336 336 336 336 336 336 335 333 333 335 337 338 337 336 336 336 336 335 335 336 336 335 335 334 334 334 334 334 333 333 332 332 332 332 332 332 331 331 331 331
341 341 341 341 343 343 343 342 342 341 341 341 341 341 341 340 340 340 339 338 338 337 337 337 337 336 335 335 334 334 335 335 335 335 334 335 335 335 334 333 334 335 335 335 335 336 336 336 336 336 336 335 334 334 335 336 336 336 335 335 335 335 335 335 335 334 334 334 333 332 332 333 333 333 332 332 332 332 332 332 332 332 332 331 331
340 340 341 341 342 343 342 341 341 341 340 340 340 340 340 340 340 340 338 338 337 336 335 336 336 336 335 334 334 335 335 334 334 335 335 334 335 335 333 333 334 335 335 335 335 335 335 335 336 335 335 335 335 334 334 334 335 335 335 335 335 334 335 335 335 333 332 332 332 331 331 332 332 332 332 332 332 332 332 332 331 331 332 331 330
340 340 340 341 341 342 342 341 340 340 340 339 339 339 339 339 339 339 338 337 337 336 336 335 335 335 335 334 334 335 335 334 335 335 334 335 336 335 334 333 334 335 335 335 335 335 335 334 335 335 335 335 335 334 333 333 334 334 333 334 334 334 333 333 334 333 332 332 331 331 331 331 331 331 331 331 331 331 331 331 331 330 331 331 331
340 340 339 340 341 341 340 340 340 339 339 339 338 339 339 338 338 338 337 336 336 337 336 336 336 335 335 335 335 335 335 335 337 337 336 336 336 336 336 334 334 335 336 335 334 334 334 333 334 334 335 335 335 334 334 334 334 334 333 332 333 333 333 332 332 333 333 333 331 331 331 331 331 331 331 330 330 331 331 331 330 331 331 331 331
340 339 338 339 340 340 339 339 339 339 338 337 337 338 338 337 337 337 337 335 335 336 335 335 335 335 335 336 336 336 335 336 337 337 336 336 336 336 335 335 335 335 335 335 334 333 333 333 333 333 334 335 335 334 335 334 334 333 333 332 332 333 333 332 333 333 334 333 331 331 331 330 331 332 331 330 331 331 331 330 330 331 331 330 330
339 338 337 338 339 339 339 338 337 337 336 336 336 336 336 336 335 335 335 335 336 335 335 335 335 335 335 335 336 336 336 337 338 337 337 337 337 336 335 335 335 335 335 334 333 333 334 333 333 333 334 334 334 335 334 334 334 333 333 332 332 332 333 333 334 334 333 333 333 333 332 332 332 332 331 331 331 331 330 330 330 330 330 330 330
338 337 336 337 338 339 338 336 335 335 335 335 335 335 335 335 335 335 335 335 335 335 334 335 335 335 335 335 336 336 336 338 338 338 338 337 337 336 335 335 335 335 334 334 333 334 334 333 333 334 334 334 334 334 334 334 334 332 332 332 331 333 334 333 334 334 333 332 333 333 332 332 333 333 332 331 331 331 331 331 330 330 330 329 329
336 335 335 336 336 336 335 334 333 333 333 333 333 334 334 334 335 335 335 335 335 335 334 334 334 335 335 336 336 336 336 337 337 338 338 338 336 336 336 335 335 334 334 334 333 333 333 333 333 333 334 334 334 334 334 335 334 332 333 333 333 334 334 334 333 333 333 332 333 333 332 332 331 332 332 332 331 331 330 330 331 331 330 329 329
333 333 334 334 334 334 333 333 332 332 332 332 333 333 333 334 334 334 335 335 336 335 334 334 334 334 335 335 335 336 336 336 336 337 337 337 336 335 335 335 335 334 334 334 333 333 333 333 333 333 333 334 334 334 334 335 334 334 334 335 335 335 335 334 334 334 333 333 332 332 332 331 330 331 331 331 331 331 330 330 331 331 331 330 329
332 331 332 332 332 332 332 332 332 332 332 332 333 333 333 333 333 334 335 335 335 335 335 335 334 334 335 335 335 335 335 335 336 336 336 337 337 336 335 335 335 334 334 334 334 334 333 333 333 334 334 334 334 334 334 335 335 335 335 335 336 335 335 335 335 335 334 333 332 332 332 332 331 331 331 331 331 331 330 330 330 330 330 330 329
330 330 331 331 331 331 331 331 331 331 332 332 332 333 333 333 333 334 335 334 334 334 335 335 335 335 335 335 335 335 335 335 335 336 336 336 336 336 335 335 334 333 333 333 333 334 334 333 333 333 334 334 335 333 333 334 334 334 334 335 335 335 335 335 334 334 333 332 332 332 331 330 330 331 330 330 331 331 330 330 330 329 329 330 328
330 330 329 330 330 330 330 330 330 330 331 331 331 332 332 333 334 334 335 335 334 334 334 335 334 334 335 335 335 335 335 335 334 335 336 335 335 334 334 334 334 334 333 333 333 333 334 333 332 333 334 334 334 333 332 334 334 333 334 334 334 334 335 334 333 333 332 333 334 334 331 329 329 329 329 330 331 330 330 331 330 329 330 329 327
328 329 328 328 329 329 329 330 330 330 330 330 331 331 331 332 332 333 333 333 333 334 334 334 334 334 334 334 334 334 334 334 334 334 335 334 334 335 334 334 334 333 333 333 333 333 333 333 333 334 334 334 334 333 332 333 333 333 333 333 333 334 334 333 334 334 334 334 334 333 331 330 329 330 330 330 331 331 330 331 330 330 330 329 328
326 327 326 327 327 328 328 329 329 329 329 329 329 329 330 330 330 330 331 331 332 333 333 334 334 334 334 334 333 333 333 333 333 334 334 333 334 335 334 334 334 333 333 333 333 333 333 333 333 333 334 334 334 333 332 333 333 333 332 332 332 332 332 332 333 334 334 335 334 333 331 331 330 331 331 330 331 330 330 330 330 330 329 329 329
324 325 325 325 326 325 326 326 327 327 328 328 328 328 328 328 328 329 329 329 330 331 332 333 332 332 332 332 332 332 332 332 333 333 333 332 333 334 334 334 334 334 333 333 333 333 333 333 333 333 334 334 333 333 333 333 332 332 332 332 332 331 331 332 333 334 334 334 335 334 332 331 331 331 330 331 330 330 330 330 330 330 329 329 328
322 323 324 325 324 323 324 324 325 325 326 326 327 327 327 327 327 328 328 329 329 330 330 331 331 330 330 331 331 331 331 332 332 332 332 331 331 332 333 334 334 334 333 333 333 333 333 333 333 333 333 334 334 334 334 332 332 333 331 331 332 331 331 333 334 334 334 334 334 334 331 330 332 332 331 331 331 330 330 330 330 329 329 329 329
320 321 323 324 323 321 321 322 323 324 324 324 325 325 325 326 326 326 327 328 329 329 329 330 330 330 330 330 330 331 331 331 331 331 331 331 332 332 333 333 333 333 333 333 333 333 333 333 333 333 334 335 335 335 334 333 333 333 331 329 330 331 331 332 333 333 334 333 332 332 331 330 331 333 331 331 331 331 331 330 329 328 327 329 329
318 319 320 322 321 320 319 321 322 323 322 322 323 323 324 324 325 325 326 326 327 328 329 329 329 330 330 330 330 330 330 330 331 331 331 332 332 332 332 332 332 332 332 332 333 333 333 334 333 333 333 334 334 334 334 333 333 332 331 330 330 331 332 332 332 333 333 332 331 331 331 330 332 332 332 332 332 331 331 330 329 329 329 329 328
317 317 318 320 320 320 320 321 321 321 321 321 321 321 322 323 323 324 325 325 326 327 328 329 329 329 330 329 329 329 330 329 330 331 331 331 331 330 330 331 331 332 332 332 332 332 333 334 334 333 333 333 334 334 333 333 333 331 331 331 331 332 332 331 331 331 332 332 332 331 330 330 332 332 331 331 332 331 331 330 329 329 329 330 328
316 316 318 319 320 320 320 320 320 320 320 320 320 320 321 321 322 323 323 324 325 326 327 328 329 329 329 329 329 329 330 330 330 331 332 330 330 330 330 330 331 331 331 331 331 332 332 333 333 333 333 332 332 332 332 332 333 333 332 332 332 333 331 330 330 331 332 332 331 331 330 330 332 331 330 331 331 331 331 330 329 328 329 329 328
314 314 316 319 320 320 320 319 319 319 319 319 319 319 320 320 321 321 322 323 324 325 326 327 327 328 329 329 328 329 329 330 330 330 331 330 330 330 330 330 331 331 331 331 331 332 332 333 333 333 333 332 331 332 332 332 333 333 333 333 333 333 331 331 331 331 332 332 331 331 330 331 331 330 330 330 330 331 330 329 329 328 328 328 328
312 312 314 317 318 318 319 318 318 318 319 319 319 319 319 319 320 320 322 323 323 324 325 326 326 327 328 328 328 328 329 329 329 329 330 330 330 330 330 330 331 331 331 331 331 332 332 332 333 333 333 332 332 332 331 331 332 332 333 333 333 332 331 331 331 331 331 331 332 331 330 331 331 330 330 330 330 330 329 328 328 327 327 327 327
312 312 313 314 315 316 317 317 317 317 318 319 318 319 319 319 319 320 320 321 322 323 324 325 326 326 327 327 327 328 328 328 329 328 329 329 329 329 329 330 331 331 331 332 332 332 332 333 333 333 333 332 332 332 331 331 331 332 332 333 332 331 330 330 331 331 331 331 332 331 331 331 331 330 330 330 330 330 329 327 327 327 327 327 327
311 312 313 313 313 315 315 316 316 316 318 318 318 318 318 318 317 318 318 319 320 321 323 324 325 325 326 326 326 327 327 328 328 328 328 329 329 329 329 329 330 331 332 332 332 332 332 333 332 332 332 332 332 332 331 331 332 331 332 333 332 331 329 330 331 331 331 331 331 331 331 331 331 330 331 330 330 330 328 327 327 327 327 328 328
310 311 312 312 313 313 313 314 315 316 317 317 317 317 317 317 317 317 318 319 320 320 322 323 324 324 325 325 325 326 326 327 328 328 328 328 328 329 329 329 330 331 331 332 332 332 333 333 333 332 332 331 332 331 331 331 331 331 331 332 331 329 328 330 331 331 331 331 331 331 331 331 331 331 331 331 330 330 329 328 328 327 327 328 328
309 310 310 310 311 312 312 313 314 315 315 316 316 316 316 316 317 317 317 318 319 320 321 322 322 323 324 324 325 325 326 327 327 328 328 328 328 328 329 329 329 330 331 331 331 332 332 333 332 332 331 331 332 331 330 330 330 330 330 330 330 330 330 331 332 332 331 331 331 331 331 331 331 330 331 331 331 330 329 329 328 328 327 328 328
308 309 308 309 310 311 312 312 313 314 314 315 316 315 315 316 315 316 316 316 317 319 320 320 321 321 322 323 324 324 325 326 327 327 328 328 328 328 329 329 329 330 330 330 331 331 332 332 331 331 331 332 332 331 330 330 329 329 329 329 331 331 331 332 332 331 331 331 331 331 331 331 330 330 331 331 331 330 330 329 330 328 327 327 327
307 308 309 309 309 311 312 312 313 313 313 314 315 314 314 315 315 315 315 314 315 317 319 319 319 320 320 322 323 324 325 326 326 326 327 328 328 328 328 329 329 329 329 330 330 330 331 331 330 331 331 331 331 330 330 329 328 327 328 331 332 332 332 333 333 332 332 331 330 331 331 330 330 330 330 330 331 330 329 329 329 328 327 327 327
307 307 308 309 310 311 312 312 312 312 313 313 314 313 314 314 314 314 313 313 314 316 318 318 319 319 320 321 322 323 324 325 326 326 326 327 327 327 327 328 328 329 329 329 329 329 329 329 329 330 330 329 329 329 330 329 328 328 329 331 332 332 332 333 332 332 332 332 331 331 330 330 330 329 329 329 329 329 329 328 328 329 328 327 327
306 307 307 307 309 310 310 311 312 311 312 313 312 313 313 313 313 313 313 314 315 315 316 317 318 319 319 320 322 323 323 324 325 325 325 325 325 325 325 326 327 327 327 327 327 327 326 326 328 328 328 328 328 327 327 328 328 328 328 330 331 332 332 332 332 332 332 331 330 329 328 328 327 327 326 327 327 327 326 326 327 327 328 328 328
306 306 306 306 308 308 308 310 310 310 311 311 311 312 313 312 312 312 313 314 316 316 316 317 317 318 319 319 321 322 323 323 324 325 325 324 324 325 325 325 325 325 325 325 326 325 325 326 326 326 327 328 328 326 326 327 327 326 327 328 328 329 330 330 331 331 331 330 328 327 326 326 325 325 324 323 323 321 321 321 322 322 324 327 328
305 305 306 306 307 308 308 308 308 309 310 310 310 310 311 311 311 312 312 314 316 316 316 315 316 317 318 319 320 321 322 322 323 323 323 323 323 323 323 324 324 324 324 325 325 324 324 325 325 324 325 326 327 326 326 327 326 324 325 326 326 326 327 328 328 328 329 329 328 327 326 325 324 323 321 320 319 318 318 318 318 318 320 321 323
305 306 306 307 307 307 307 307 307 307 308 309 309 309 309 310 310 311 312 314 315 316 315 315 314 315 316 317 319 320 320 321 321 320 321 321 321 320 321 322 322 322 322 323 324 323 323 323 323 322 322 323 325 326 326 325 325 325 324 324 325 326 326 326 327 328 329 328 327 327 325 323 322 321 320 318 317 318 319 320 320 320 319 318 318
305 305 306 307 307 306 306 306 306 306 307 308 309 309 309 310 310 311 312 313 314 315 314 314 313 313 314 315 317 319 320 319 319 318 317 318 318 318 318 319 320 319 318 319 320 320 320 319 319 319 320 321 323 325 325 325 325 325 324 324 326 327 327 327 327 328 328 327 326 325 324 323 323 322 321 320 321 322 322 323 322 320 319 318 317
305 305 306 307 306 305 305 305 305 306 307 308 308 308 309 310 310 311 312 313 313 314 314 313 311 310 312 314 316 317 319 318 318 317 316 315 315 315 316 316 317 317 316 316 315 315 316 316 316 317 318 320 322 323 324 323 323 323 323 326 328 328 327 327 326 326 326 326 326 324 324 325 325 322 320 321 323 324 323 323 322 320 318 318 318
304 304 305 306 305 305 304 304 306 306 307 308 308 308 308 309 309 310 311 312 313 313 313 312 311 310 311 313 314 316 317 317 317 316 315 314 314 314 313 314 315 315 315 314 314 314 314 315 316 316 317 318 318 319 321 320 320 321 323 326 327 327 327 326 325 324 324 324 325 325 325 325 323 319 318 319 321 322 323 323 322 321 319 317 316
303 304 305 305 305 305 304 305 306 306 307 307 307 307 308 308 309 310 311 311 311 312 313 312 311 310 311 311 313 314 315 315 315 314 314 313 313 313 312 313 314 315 314 313 313 314 314 315 315 315 316 317 317 318 320 319 319 322 325 327 326 326 325 323 322 320 320 321 322 323 323 322 319 317 317 318 319 322 323 322 322 321 319 317 315
303 304 305 305 305 304 305 305 306 306 307 307 307 307 307 307 308 309 310 310 311 311 312 312 311 311 310 310 311 313 314 314 314 313 313 312 312 312 312 312 313 314 314 314 313 314 314 314 314 314 315 316 317 317 318 319 320 322 324 325 324 323 322 321 320 318 317 318 319 320 320 319 317 318 318 318 319 322 323 321 321 320 319 317 315
302 303 304 304 304 304 304 305 306 306 307 307 307 307 306 307 308 309 309 309 309 310 311 311 311 310 309 309 310 311 311 312 312 312 312 312 311 311 311 311 312 312 313 314 314 313 313 313 313 314 314 315 315 316 317 318 319 321 322 322 322 321 320 319 318 317 316 316 317 318 318 318 318 318 317 317 318 320 320 320 320 319 317 316 315
301 302 303 304 304 304 304 304 305 306 306 307 307 306 306 307 307 308 308 308 309 309 310 310 310 310 308 307 308 309 310 310 310 310 310 310 311 311 310 311 311 311 312 313 313 313 312 311 312 314 314 315 315 316 316 317 318 319 319 320 319 318 317 316 315 314 313 314 315 315 316 316 316 315 315 314 314 315 316 317 317 317 315 314 314
301 301 302 304 304 304 304 304 304 305 305 306 306 306 305 306 307 307 307 308 308 308 309 309 309 309 308 307 307 308 308 308 308 308 308 308 308 309 309 309 310 311 311 311 311 311 310 309 309 311 312 313 314 315 316 317 317 317 317 317 316 315 315 314 313 312 311 311 311 312 312 311 311 311 310 310 309 309 310 311 311 310 310 310 311
301 301 302 303 303 303 303 303 303 304 305 306 306 305 305 306 306 306 307 307 308 308 308 308 308 308 307 307 306 307 307 307 308 308 307 306 306 306 307 307 308 308 308 308 308 308 308 307 307 307 308 309 312 314 315 315 316 316 316 316 315 314 314 314 313 311 310 309 309 308 307 307 307 307 307 306 306 306 305 304 303 303 302 303 306
301 301 301 302 302 303 302 303 303 303 304 305 305 305 305 305 305 305 306 307 307 307 307 307 307 307 307 306 306 305 304 305 306 307 307 306 305 304 305 305 305 306 306 306 306 306 305 305 305 305 305 305 307 310 312 313 314 314 314 314 314 313 312 313 312 310 308 307 306 305 304 304 305 305 304 303 303 302 302 301 300 299 299 300 302
300 300 301 301 302 302 302 302 302 303 303 304 304 304 304 304 304 304 305 306 306 306 306 306 306 306 306 306 305 304 303 302 302 303 304 303 303 303 303 303 303 304 304 304 304 304 303 303 303 303 303 304 305 306 307 309 310 311 312 312 312 311 310 311 309 306 304 305 304 303 303 303 303 302 302 302 301 301 300 299 298 298 300 302 303
300 301 301 301 302 302 302 302 302 302 303 304 304 304 304 304 304 303 304 305 305 305 305 305 305 305 305 305 304 304 303 302 301 300 300 300 300 301 301 301 301 302 302 302 303 303 303 302 302 302 302 303 304 304 305 306 307 308 308 308 308 308 307 307 306 304 303 303 303 303 303 302 302 302 302 302 301 300 299 298 298 298 300 302 303
300 301 302 302 302 302 302 302 303 303 303 303 303 303 303 303 303 303 303 303 304 304 304 304 304 304 304 303 302 302 301 301 300 300 299 298 298 299 299 299 299 300 300 300 301 301 301 301 300 300 300 301 301 302 303 304 305 305 306 305 305 306 305 305 304 304 303 303 303 302 302 302 302 302 302 302 301 301 300 299 298 298 298 298 300
300 301 301 302 302 302 303 303 303 302 302 303 303 303 303 303 303 303 302 303 303 303 304 304 303 303 303 302 302 301 300 299 298 298 298 297 297 297 298 298 298 298 298 299 299 299 299 299 299 299 299 299 299 299 300 301 303 304 305 304 304 304 304 304 304 303 303 302 302 302 302 302 302 302 301 301 301 300 300 299 298 298 298 297 298
299 300 301 301 301 302 302 302 302 302 302 302 302 302 302 303 303 303 303 302 302 302 303 303 303 303 302 302 302 302 301 300 299 297 297 297 297 298 298 298 298 298 298 298 298 298 297 297 298 298 298 298 299 299 298 299 299 301 302 302 302 302 301 301 302 302 301 301 302 301 301 301 301 301 301 300 300 300 299 298 298 299 299 300 300
299 300 300 300 301 301 301 302 302 302 301 301 301 302 302 302 302 303 303 303 302 302 302 302 302 302 302 302 302 302 301 301 300 299 298 298 298 298 299 299 299 298 298 297 297 297 297 297 297 297 297 297 298 299 298 298 298 298 299 299 299 300 300 300 301 301 300 301 302 302 301 301 300 300 300 299 299 299 298 298 298 299 299 300 300
299 299 300 300 300 301 301 301 301 301 301 301 301 301 301 302 302 302 302 303 303 302 301 301 301 301 302 302 302 302 301 301 301 301 300 299 299 299 299 299 299 299 299 298 298 297 297 297 297 296 296 297 298 300 300 300 299 299 299 299 300 301 301 302 302 301 301 301 301 300 300 300 299 299 298 298 298 298 298 298 298 298 298 299 299
Wind_Speed
7 6 5 5 4 4 4 5 6 7 7 8 8 7 7 6 4 4 4 3 3 4 6 7 9 9 8 9 11 12 11 10 10 11 11 10 11 11 11 12 11 9 9 10 12 12 13 13 12 14 15 16 17 15 12 11 11 12 13 13 14 14 14 13 13 13 12 11 10 9 8 7 6 7 6 6 6 6 6 6 5 6 6 6 6
5 5 4 3 3 4 4 5 7 7 8 7 8 8 7 6 4 3 2 2 4 4 5 6 8 8 7 8 12 14 12 10 9 10 11 10 10 11 11 12 11 9 10 11 12 11 12 13 13 15 15 15 15 13 11 11 12 14 14 14 14 14 14 14 16 15 12 11 10 8 7 6 6 7 7 7 7 7 7 7 6 7 7 6 6
5 4 4 4 3 4 5 6 6 7 8 7 7 7 6 5 4 3 1 2 3 3 3 6 8 8 6 7 10 12 12 10 10 10 11 11 11 12 12 11 10 9 10 11 11 10 11 13 14 14 14 15 15 13 12 13 15 16 16 15 14 13 12 13 16 15 12 13 12 8 5 5 5 7 9 8 7 7 7 8 8 8 8 7 6
5 4 3 3 3 3 5 6 6 7 7 7 7 6 5 4 4 3 1 2 4 4 4 4 6 6 6 6 8 10 10 9 10 11 12 12 12 13 13 13 13 10 10 10 10 10 10 12 13 13 14 15 15 15 15 15 16 16 17 17 15 13 13 14 15 14 13 13 10 6 5 5 4 7 10 9 8 8 7 9 9 9 9 8 7
3 4 3 3 3 4 5 5 5 6 7 7 7 6 5 4 4 3 1 2 4 5 4 4 5 5 5 5 7 9 9 9 10 11 13 12 12 12 12 14 13 10 10 10 10 10 10 10 12 12 14 16 16 16 16 16 15 15 17 19 19 16 13 14 14 13 12 11 7 3 4 4 4 7 9 8 10 10 7 8 8 8 9 9 8
2 3 3 3 4 5 5 5 6 7 8 8 7 6 6 5 4 3 2 3 3 3 4 4 5 6 7 8 8 9 10 11 11 11 10 11 11 11 11 12 11 10 10 10 10 11 10 10 12 13 14 17 18 17 16 15 15 17 17 18 19 17 14 13 13 12 11 12 11 6 3 3 4 8 7 5 8 9 8 9 9 8 9 10 10
4 4 4 4 4 5 6 6 8 9 9 8 8 7 6 5 4 2 2 3 3 4 5 5 6 7 9 10 10 11 11 10 10 9 8 8 9 9 10 11 10 10 11 11 11 11 12 12 13 14 14 17 19 18 17 16 16 18 18 18 19 18 16 14 13 13 12 13 13 10 5 4 4 6 4 3 6 6 8 10 9 9 9 10 10
4 5 4 4 5 6 8 8 9 9 8 7 7 6 5 3 2 2 2 3 4 5 6 7 8 9 10 11 11 11 10 8 8 9 8 8 8 8 9 10 11 11 12 12 12 12 13 13 13 14 15 17 19 19 18 17 18 19 18 18 20 18 16 14 13 14 14 13 14 12 8 6 5 4 3 3 4 5 7 8 7 9 9 9 8
5 6 6 6 6 7 8 9 9 9 8 7 6 5 4 2 2 1 2 3 4 5 7 8 9 9 10 11 12 12 11 9 8 9 8 8 9 8 8 9 10 11 12 13 12 13 14 14 14 16 16 16 18 18 17 16 18 19 17 17 18 16 15 14 13 14 14 13 13 12 10 8 8 6 4 5 5 4 6 7 8 9 7 7 7
7 8 8 8 8 8 8 8 9 9 8 7 6 5 4 3 2 1 1 3 4 5 6 8 10 11 11 12 12 12 12 10 9 10 10 9 9 8 7 8 9 10 11 12 12 13 14 15 16 16 17 16 16 16 15 15 17 17 16 17 16 15 14 14 13 13 14 13 12 12 10 8 8 8 7 6 5 4 4 7 10 9 7 7 7
8 8 9 10 10 9 9 9 9 9 8 7 6 6 5 4 2 1 1 2 4 6 7 9 10 11 11 12 12 13 13 12 11 11 11 10 9 8 6 6 8 10 11 11 12 12 13 16 17 16 16 15 15 16 16 15 16 16 15 16 16 16 15 14 13 12 12 13 12 12 11 9 8 7 6 7 6 4 4 7 11 12 10 9 7
7 7 8 9 10 10 10 10 9 9 8 7 6 5 4 3 2 2 1 2 3 5 7 8 9 10 11 11 12 13 13 13 13 12 11 10 9 7 6 6 8 11 10 10 12 13 14 17 18 16 15 14 15 17 17 15 15 16 16 16 16 17 16 15 15 14 14 15 14 13 11 11 11 6 5 7 7 5 5 5 9 12 11 9 8
6 6 7 7 8 10 10 10 9 8 8 7 6 5 5 4 4 5 4 3 3 5 6 7 9 9 10 11 12 13 14 14 15 12 10 9 8 7 8 9 9 10 10 11 12 15 16 18 19 17 16 15 16 18 18 17 16 16 18 18 17 17 18 18 17 17 17 16 13 11 11 12 12 8 6 6 6 6 6 5 7 9 7 8 9
7 7 8 8 9 10 10 9 9 9 9 9 8 7 7 7 7 6 6 6 5 5 6 7 8 9 9 10 11 12 13 15 15 12 10 10 10 9 11 12 11 10 12 14 15 17 19 20 20 19 16 15 17 19 20 20 19 17 18 18 18 18 18 18 17 16 16 13 11 12 13 14 13 10 7 6 6 7 7 6 7 7 6 7 8
9 9 9 10 12 13 12 12 11 11 12 11 10 10 9 8 8 7 7 7 7 7 7 7 7 8 8 9 10 11 13 14 14 12 10 12 14 13 14 15 13 12 13 15 17 19 19 20 21 19 17 17 19 20 20 21 21 19 18 17 17 17 17 18 16 14 13 12 11 11 12 13 11 10 8 7 8 8 7 8 8 7 6 6 6
8 9 9 11 13 13 12 13 13 12 13 12 12 11 10 9 8 8 8 7 8 7 8 7 6 8 9 9 10 11 12 13 14 12 12 15 18 16 15 17 15 12 12 14 17 18 18 19 20 18 18 18 20 20 19 21 21 19 18 18 19 19 18 17 15 13 12 12 12 11 11 12 11 10 9 8 8 8 8 9 10 9 7 5 5
8 8 9 11 13 12 12 12 12 12 12 12 12 12 11 11 10 10 9 9 8 8 8 7 7 9 10 10 11 11 11 12 13 12 14 18 19 18 17 17 16 14 13 14 15 16 17 19 19 17 16 15 15 15 16 18 18 18 17 17 19 19 19 17 14 12 12 12 13 13 13 12 11 10 10 9 9 9 9 9 10 10 7 5 5
8 8 9 11 12 12 11 11 12 12 12 12 12 11 11 10 10 10 10 10 10 9 9 8 8 11 12 12 12 13 13 12 12 12 15 17 18 18 16 16 17 16 14 13 14 15 17 18 18 16 14 12 11 11 12 12 13 15 15 14 16 16 16 16 14 13 12 13 13 13 12 11 10 10 10 10 10 9 9 9 9 9 6 4 5
7 8 8 9 10 10 9 10 11 12 12 12 11 11 11 10 9 10 10 10 11 10 10 9 9 10 12 13 13 14 14 13 12 14 16 17 17 17 16 16 18 17 15 14 14 16 17 17 16 14 11 11 10 9 10 10 11 13 12 12 13 13 13 14 14 13 12 13 13 12 12 10 10 10 11 11 11 10 10 10 8 8 5 3 4
7 7 7 8 9 10 10 10 11 11 11 11 11 10 10 10 10 11 11 12 12 11 11 11 10 10 11 13 14 13 14 14 13 15 16 16 16 16 17 18 17 15 16 17 15 15 17 17 16 15 13 12 11 10 10 10 11 11 12 11 11 12 13 14 13 12 12 12 13 12 12 10 10 11 12 11 11 10 10 10 9 9 8 5 5
6 6 6 7 8 9 9 10 10 10 11 12 11 11 11 12 12 12 12 13 13 12 12 11 11 11 11 12 13 11 11 12 13 14 15 15 15 15 17 17 15 14 16 18 16 15 17 18 17 17 16 15 14 14 13 12 11 11 11 12 12 12 13 14 14 12 11 11 12 12 11 10 11 12 12 11 12 11 11 10 9 10 10 9 7
6 6 6 7 8 9 10 11 11 11 13 13 13 13 13 13 13 12 12 13 13 13 12 12 11 12 12 12 12 9 9 11 12 14 15 15 14 15 16 15 14 15 16 16 16 16 17 19 18 17 17 17 16 16 15 13 11 12 12 12 12 13 13 12 13 13 12 11 11 12 11 11 12 12 12 12 12 12 12 12 10 11 11 11 9
6 5 6 7 8 9 10 11 12 12 14 14 14 14 13 14 14 13 13 13 13 13 13 13 12 12 12 11 11 9 9 10 12 13 13 12 13 13 15 15 14 16 16 16 16 16 17 19 19 17 17 18 18 16 15 14 13 13 14 13 14 15 14 12 12 13 13 13 13 13 12 12 13 13 12 11 12 12 12 12 11 10 10 11 10
6 6 6 7 8 9 9 11 12 13 14 14 14 14 13 14 14 13 14 14 14 13 13 13 12 12 11 10 9 9 9 10 11 12 11 11 12 12 14 15 15 16 15 15 16 17 18 19 19 18 18 19 19 16 14 15 15 14 14 14 14 15 16 15 14 14 14 13 14 14 13 14 14 13 12 11 11 12 12 11 11 11 10 11 11
6 7 7 7 8 9 10 11 12 12 13 14 14 14 13 13 14 14 14 15 14 13 14 13 12 12 11 10 10 10 10 10 10 11 11 12 12 11 12 14 14 15 15 16 18 18 18 19 20 19 18 19 19 17 15 15 14 14 15 15 16 16 16 15 15 14 14 14 14 14 14 14 14 13 13 12 12 13 13 11 12 12 12 12 11
6 7 6 7 8 9 11 11 11 11 12 12 12 13 12 13 14 14 15 15 14 13 14 13 12 12 12 11 11 10 10 10 10 10 11 11 10 10 11 11 13 15 16 17 18 19 19 19 19 19 18 19 19 18 17 16 14 14 16 17 16 15 15 14 13 13 13 14 14 14 14 14 14 13 13 12 12 13 13 12 12 12 12 13 12
5 6 6 6 7 8 10 10 10 11 11 11 11 12 13 13 14 14 15 15 14 14 13 12 12 12 12 12 12 11 10 9 9 10 9 9 9 9 10 10 12 16 18 18 18 18 18 17 17 16 16 17 16 16 18 18 16 17 17 17 16 15 14 13 12 13 13 13 14 14 13 14 14 14 13 13 13 14 13 12 12 12 12 13 12
5 6 6 6 6 6 8 9 10 11 11 11 11 12 13 13 14 14 14 14 14 14 14 13 12 13 12 12 12 11 10 8 8 8 8 7 7 8 9 10 13 15 18 18 18 18 15 14 16 17 16 15 14 15 18 18 18 18 17 16 16 15 14 13 12 13 13 13 13 13 13 13 13 12 12 12 13 14 13 12 12 11 11 12 12
6 6 6 5 5 6 8 9 10 11 12 12 12 12 13 14 14 14 14 14 14 14 13 13 13 13 13 12 11 11 9 8 7 7 6 6 6 7 8 10 12 14 16 16 16 15 12 12 15 16 16 16 15 16 17 17 18 19 18 16 16 15 14 14 14 13 13 13 13 12 12 12 12 12 12 13 14 14 12 12 12 12 12 12 11
6 5 5 5 6 7 8 9 10 11 12 12 12 12 13 13 13 13 13 14 14 13 13 14 14 14 13 12 12 12 9 7 6 6 6 5 5 6 7 9 11 13 13 11 10 12 12 11 11 11 12 15 17 18 18 17 17 17 16 15 15 15 15 15 14 14 14 13 12 12 13 14 13 13 14 15 16 15 12 11 12 12 11 10 9
4 4 5 5 6 8 9 10 10 11 11 11 12 12 11 12 12 12 12 13 13 13 13 14 14 14 14 13 13 13 10 8 8 7 6 5 4 4 3 5 7 9 9 8 9 12 11 10 12 10 9 12 17 20 19 17 16 15 15 14 14 15 15 15 15 15 14 13 12 12 14 15 13 14 15 15 16 15 13 12 12 12 11 10 9
4 5 5 6 7 8 9 9 10 10 11 11 12 12 12 12 12 11 11 12 13 13 14 15 15 15 15 14 13 13 11 11 10 9 8 5 4 4 2 3 4 4 6 7 9 11 11 13 16 15 10 9 13 18 18 16 17 17 16 14 13 14 14 15 15 14 14 14 13 12 12 13 13 15 15 15 14 13 12 12 12 12 12 12 10
5 4 5 6 6 7 8 8 9 9 10 11 11 11 11 12 12 11 10 11 13 13 14 15 16 16 16 15 14 13 12 12 12 11 9 7 5 4 2 1 1 3 7 8 10 11 12 15 16 16 12 10 12 16 17 16 17 18 16 14 12 12 12 13 14 14 13 13 14 14 12 13 15 16 16 16 15 14 12 12 11 11 11 11 10
4 4 6 6 6 6 7 8 9 9 9 9 10 10 11 11 11 11 11 11 12 14 15 15 15 16 16 16 15 15 14 13 12 10 9 7 6 5 4 3 2 4 7 10 11 12 13 15 13 13 14 14 14 16 17 18 17 16 15 12 10 10 10 11 13 13 12 13 14 14 14 15 16 15 16 17 17 16 14 13 12 12 12 11 11
5 5 6 6 6 6 7 7 9 9 9 9 10 11 11 11 11 11 12 11 12 14 16 16 15 15 16 17 16 15 14 13 11 10 9 8 7 7 7 6 6 7 8 10 10 10 11 12 12 13 15 15 16 16 17 17 16 15 13 11 9 10 10 11 12 12 12 13 14 15 16 17 16 15 16 17 16 15 15 14 13 13 13 12 12
5 6 6 6 6 6 6 7 8 8 8 10 11 11 11 12 12 12 13 13 13 14 16 16 16 16 16 17 17 16 15 14 12 11 10 9 8 8 9 9 9 10 10 11 12 12 11 9 9 10 11 11 14 17 17 15 14 14 13 11 10 11 11 12 12 12 12 12 12 14 15 15 15 17 19 18 15 14 14 14 14 13 12 12 11
6 7 7 6 6 6 6 7 7 8 9 10 10 10 11 12 13 14 14 15 15 16 17 17 17 17 16 16 17 16 15 14 13 12 11 10 10 9 8 9 11 12 13 14 15 15 14 12 11 8 7 8 10 14 16 14 12 13 12 10 11 12 12 13 13 12 13 14 14 14 13 13 16 20 20 18 16 14 12 13 13 13 12 12 11
6 7 7 7 7 7 6 6 7 9 10 10 10 10 11 13 14 14 15 15 16 17 19 18 17 17 15 15 16 16 16 15 14 12 11 10 10 9 9 9 12 14 14 14 15 16 15 14 13 10 9 9 9 11 13 13 13 13 10 9 12 13 13 14 15 13 14 17 18 16 13 15 19 20 18 17 16 13 11 12 13 13 12 11 10
7 8 8 8 7 7 7 8 9 10 10 10 10 12 12 14 14 14 15 16 17 18 19 18 17 16 15 14 14 15 16 16 14 13 12 11 10 10 9 10 13 17 18 16 16 17 17 16 14 12 11 12 11 11 12 14 14 14 10 8 10 13 12 12 14 16 16 16 17 17 16 18 19 18 17 16 14 11 10 11 11 12 12 11 10
8 9 9 8 8 8 10 10 10 9 9 9 10 12 14 14 15 15 16 16 16 17 18 18 16 16 16 15 13 14 15 16 15 14 13 12 11 11 11 11 12 15 19 20 19 20 21 20 17 15 14 13 12 10 9 11 12 12 12 9 9 12 13 10 11 15 17 16 17 17 18 18 18 16 14 14 13 11 10 10 9 10 11 11 10
9 9 8 8 8 9 10 9 9 9 9 9 10 13 15 15 15 16 17 16 15 16 17 18 17 17 18 17 16 15 14 15 15 14 14 14 14 12 11 11 11 12 17 23 24 23 24 24 21 19 18 16 14 12 9 7 7 8 9 10 10 13 15 13 13 17 20 20 19 18 18 16 15 14 12 11 11 11 10 10 10 11 13 13 11
10 9 8 8 9 10 10 9 9 9 10 10 11 13 14 14 15 17 16 15 15 16 18 19 19 19 19 19 21 21 18 15 15 16 17 17 17 15 14 13 12 13 16 21 22 21 22 23 23 23 22 20 17 16 14 12 10 9 7 8 10 12 15 17 19 23 24 23 20 18 16 14 13 13 12 11 10 8 8 10 10 11 13 14 13
9 9 8 7 9 9 9 9 9 9 10 10 11 13 14 14 15 15 14 14 16 16 18 20 21 22 21 20 22 25 25 23 22 22 22 20 18 18 17 17 17 19 20 20 18 16 17 18 19 20 22 23 21 19 17 16 15 15 14 14 17 18 17 17 20 23 23 22 20 18 15 14 13 13 13 12 11 10 10 11 11 10 11 12 11
7 6 6 7 8 9 9 9 9 10 11 11 12 14 14 15 15 14 13 14 15 16 18 19 21 23 24 23 24 26 28 29 30 30 30 28 25 24 22 20 19 20 22 22 20 20 21 21 20 19 19 21 23 23 21 19 16 16 16 16 18 19 18 17 18 21 22 21 21 18 15 13 13 13 14 13 13 13 13 13 12 10 10 10 9
6 5 6 8 9 9 10 10 10 10 11 12 13 15 16 16 15 13 13 14 15 16 18 19 20 22 23 23 24 26 28 32 34 36 36 35 33 33 31 27 23 21 20 21 23 27 29 28 27 24 21 20 21 23 25 26 24 22 21 19 17 15 13 15 20 23 23 22 20 18 15 13 13 14 15 15 15 15 14 12 11 11 10 8 7
5 5 7 10 11 11 10 10 10 10 11 12 13 14 15 15 14 14 14 14 15 17 18 19 20 21 21 21 22 22 24 27 30 34 38 38 37 37 35 33 30 28 26 24 24 26 27 28 30 29 27 26 25 24 24 25 26 27 26 24 22 19 16 18 21 21 20 19 17 15 14 14 15 15 15 16 16 15 12 10 10 10 9 7 7
6 7 9 11 11 11 11 11 11 12 12 12 13 14 14 14 14 14 15 15 16 17 17 18 19 19 20 21 21 21 22 24 26 29 33 36 38 39 38 36 33 32 32 30 27 26 25 27 28 28 28 29 28 26 23 22 22 24 24 23 22 20 17 18 19 18 16 16 14 13 14 14 13 13 14 14 14 13 11 9 8 7 7 8 7
8 9 10 12 12 12 12 13 13 14 14 14 13 13 13 14 14 15 16 17 17 17 17 17 18 18 19 19 20 20 21 24 28 32 32 31 31 33 35 34 32 31 31 29 26 25 25 26 27 26 27 27 26 24 23 21 19 19 19 19 19 17 16 16 16 15 14 12 11 10 10 10 10 11 12 12 11 9 9 9 8 8 8 8 7
10 10 11 12 13 13 13 14 14 15 15 15 15 13 13 13 14 14 15 16 17 17 17 17 16 17 17 17 17 18 19 20 25 30 32 31 28 27 28 29 28 28 27 26 25 24 24 25 26 26 26 26 24 22 21 20 19 17 16 15 15 14 13 13 12 10 9 8 8 9 9 9 10 11 11 10 8 7 7 7 8 7 6 6 6
10 11 12 13 13 14 14 14 14 14 15 15 15 14 13 12 12 13 14 14 16 17 18 18 17 16 16 16 16 17 17 18 19 21 25 27 28 28 28 27 26 25 25 25 25 23 22 23 25 24 23 22 21 19 16 15 16 15 14 13 12 11 11 10 8 7 5 6 9 11 11 10 9 9 8 8 6 6 5 5 6 6 5 4 5
11 12 13 13 13 14 14 14 14 13 14 14 14 14 13 12 11 12 13 14 14 15 16 17 17 16 15 15 16 16 16 17 17 17 18 20 23 26 27 27 25 24 23 23 22 21 20 20 20 20 19 19 18 17 15 14 13 12 11 11 11 10 9 8 8 8 7 8 9 9 8 7 6 6 6 5 4 4 5 4 5 5 5 5 6
Wind_Direction
113 127 157 187 182 154 136 133 132 131 134 138 144 147 148 152 158 172 192 218 240 231 224 239 249 241 233 238 238 231 227 229 237 245 242 242 243 240 244 252 251 241 238 237 234 231 225 220 212 210 212 206 205 208 206 202 190 177 177 182 186 188 190 194 187 174 171 173 170 163 162 173 181 189 200 200 200 200 196 200 199 200 197 185 182
137 143 170 198 175 150 126 119 125 122 127 133 138 145 150 154 156 158 182 249 256 234 219 232 240 233 225 230 233 232 230 228 231 236 237 237 237 234 237 244 246 244 244 244 240 231 224 221 217 218 216 207 202 202 201 194 185 178 174 180 192 192 188 188 179 169 175 183 175 164 163 174 182 190 204 206 205 206 205 208 204 209 205 190 194
161 157 179 201 175 157 131 113 118 118 121 123 124 137 148 154 159 157 195 244 228 219 226 242 242 241 248 239 231 234 237 234 229 230 239 243 243 242 242 244 244 242 242 244 242 236 229 225 223 223 218 210 204 201 202 194 185 182 175 173 184 194 194 189 184 180 186 187 182 184 171 167 184 197 207 208 208 209 210 217 215 214 212 197 199
164 156 186 203 167 143 126 115 118 120 123 123 119 126 135 144 154 156 247 244 219 213 210 224 231 239 261 253 236 240 243 237 228 227 238 245 248 252 253 249 245 241 240 241 239 234 232 229 227 223 214 209 204 201 203 199 193 188 181 172 172 188 198 195 195 198 205 199 189 195 169 169 205 198 197 198 198 207 214 222 219 211 210 202 199
174 159 179 201 168 138 127 118 116 118 119 121 119 119 122 132 151 163 197 246 236 226 212 206 212 218 234 237 232 240 241 233 225 222 230 239 242 245 250 250 245 239 236 237 237 230 226 227 228 220 208 205 203 200 202 199 195 191 186 184 182 190 199 198 201 208 219 213 199 206 170 191 222 172 177 190 190 201 209 215 213 201 200 198 199
109 131 148 161 149 136 129 119 112 110 106 108 110 109 111 113 124 143 174 237 235 232 232 221 215 212 215 218 216 222 227 224 222 223 227 232 234 237 243 244 239 234 232 231 230 228 223 222 222 215 205 204 202 200 200 198 197 194 190 193 194 197 200 199 200 203 212 210 211 229 189 197 217 164 166 186 182 193 196 197 201 194 193 192 191
106 117 127 131 136 136 124 110 101 98 97 99 102 103 107 109 117 145 193 241 240 240 234 219 215 215 220 227 225 225 227 224 224 228 231 232 234 240 245 245 236 230 231 228 226 224 223 220 216 212 205 204 203 200 198 196 198 196 190 196 200 198 200 201 196 194 199 206 215 228 208 200 222 191 189 182 167 183 188 191 196 188 189 190 189
102 108 106 108 115 116 106 98 94 92 93 95 94 93 93 99 121 164 192 229 245 244 228 217 220 219 222 232 235 237 238 233 229 230 231 231 235 243 248 249 242 232 228 228 226 225 228 222 211 209 204 202 205 204 199 196 198 195 188 201 208 200 197 199 195 192 196 203 209 219 218 206 207 214 251 243 197 177 174 186 190 180 177 177 181
82 83 78 78 80 84 86 87 86 87 89 89 87 86 86 98 117 142 197 218 227 238 231 224 225 222 222 228 235 243 246 243 240 237 239 237 237 243 245 248 247 239 232 231 229 228 231 227 213 210 206 201 204 204 199 198 202 197 189 200 205 196 193 196 196 195 199 206 203 205 215 209 198 201 221 236 229 189 170 177 172 167 165 167 168
76 79 76 74 74 77 79 78 78 81 83 85 87 84 84 95 112 138 238 240 230 237 240 233 230 229 229 231 236 243 247 247 244 240 243 244 244 246 244 246 247 243 237 235 235 231 231 229 220 215 210 204 200 197 195 197 201 199 195 197 197 193 193 196 198 198 202 208 197 194 207 209 202 197 195 208 221 215 185 163 159 165 167 165 164
74 79 80 79 78 76 73 71 69 71 74 76 80 80 78 82 75 51 280 279 261 246 242 240 238 237 239 240 241 244 247 249 247 242 239 239 244 247 247 247 247 247 243 237 237 232 230 231 226 220 217 210 200 195 194 195 198 198 200 201 199 199 199 197 199 199 199 202 198 197 200 208 219 211 195 194 193 207 197 156 158 169 166 156 157
76 78 78 75 73 69 66 62 58 56 55 53 58 59 57 63 39 348 306 286 275 259 251 248 244 242 244 245 245 247 250 251 251 249 244 240 239 241 250 253 250 252 248 238 236 232 227 229 228 224 222 215 203 199 196 195 199 198 200 204 202 203 204 199 199 200 198 199 203 199 186 199 223 225 207 200 184 185 195 170 163 166 160 147 146
68 70 70 66 62 62 60 57 52 46 41 38 37 33 22 12 355 335 329 323 294 273 264 257 252 250 249 251 252 251 251 252 253 251 244 240 237 231 236 240 244 249 245 236 237 235 228 227 228 223 220 216 206 200 197 202 208 203 201 203 200 204 208 204 202 202 200 197 199 195 181 194 212 208 205 204 179 174 185 176 161 162 158 142 146
58 64 65 60 57 55 53 52 51 45 40 38 34 30 23 14 3 349 338 331 317 294 274 262 258 256 253 253 253 252 251 251 250 244 230 227 228 225 229 232 230 227 225 223 226 232 228 224 227 223 217 215 207 199 198 205 211 206 202 202 199 205 208 205 204 201 199 194 193 198 193 195 203 200 199 195 180 180 178 167 159 156 154 148 156
58 64 63 58 54 50 45 42 41 42 40 38 34 29 24 17 5 350 334 321 318 310 292 278 266 259 256 254 254 255 255 253 251 246 233 224 223 224 230 234 230 217 214 214 218 228 228 225 228 225 215 211 205 198 197 203 208 202 200 199 198 206 209 206 204 197 195 197 196 201 196 190 192 192 192 191 187 183 173 168 166 160 155 155 163
56 61 60 56 54 49 44 41 38 39 38 34 32 29 24 17 5 349 336 322 314 306 299 295 274 261 263 262 261 260 258 256 255 252 242 230 225 224 228 232 231 220 212 210 212 221 223 221 227 229 221 211 200 192 192 199 205 203 201 198 197 204 206 202 198 191 192 197 196 201 201 192 185 185 191 190 185 182 176 173 176 176 168 157 167
57 57 57 56 54 49 46 44 40 36 33 29 27 25 22 18 10 357 348 338 329 316 303 296 276 268 271 266 260 254 249 250 252 250 243 235 229 226 226 228 228 221 215 212 210 215 217 214 218 223 221 211 196 191 195 198 201 202 203 199 195 198 199 193 189 188 192 197 198 201 203 196 181 182 192 187 181 184 181 182 187 188 183 169 175
64 57 55 56 54 47 41 39 36 32 27 24 22 19 16 13 6 359 354 347 341 335 321 305 286 279 279 273 267 258 251 249 246 243 239 235 232 229 226 227 226 222 219 213 207 210 214 213 214 214 210 204 197 196 202 203 202 202 203 201 195 195 195 189 185 186 189 197 202 201 202 195 177 179 188 180 180 184 183 189 193 190 193 197 194
60 56 54 53 48 38 30 27 26 25 21 18 16 13 11 7 0 356 356 353 347 343 336 324 308 295 289 283 277 268 259 252 242 237 234 232 235 234 229 227 226 224 221 213 202 204 209 210 211 210 203 201 199 197 203 208 210 205 200 204 201 192 192 190 184 185 188 196 202 200 199 190 170 176 183 176 180 183 183 191 190 181 180 196 210
58 61 60 53 45 35 29 25 24 23 20 17 13 11 9 6 2 360 359 357 353 348 341 335 325 313 301 293 288 279 268 257 245 237 233 234 238 235 230 227 222 218 218 214 205 202 206 204 201 199 198 200 199 201 205 207 214 208 196 201 202 193 198 195 184 183 187 193 198 196 196 186 169 177 182 177 182 183 184 189 185 181 180 178 203
67 66 62 53 46 40 35 33 31 29 25 22 19 16 13 10 7 5 2 359 355 350 342 335 328 320 311 302 299 291 274 263 252 240 233 236 240 235 230 227 219 213 216 215 207 202 205 204 196 190 195 202 200 203 207 205 207 205 193 197 198 196 203 194 180 182 186 190 197 195 192 184 175 181 182 182 186 183 183 186 183 186 182 174 192
66 60 56 51 47 43 40 37 33 31 27 24 21 19 15 13 9 5 3 359 354 348 341 335 328 322 319 312 309 302 281 267 259 249 239 238 242 239 234 229 218 214 216 214 205 201 205 206 197 187 191 198 199 202 207 204 201 200 196 196 193 194 202 191 177 182 186 186 194 196 193 186 184 188 189 188 186 182 185 185 184 189 179 170 187
60 45 42 45 45 42 37 31 28 28 26 22 20 19 14 13 11 6 4 360 354 348 341 337 331 326 324 318 313 306 285 270 264 258 247 240 243 241 235 229 220 216 217 212 202 200 205 206 199 189 186 191 195 198 203 203 203 202 199 199 194 191 197 192 181 184 186 184 189 195 193 188 189 191 193 192 184 183 191 188 183 188 178 170 184
60 44 39 36 35 32 27 23 23 25 26 22 19 18 15 15 12 8 4 358 353 349 343 339 337 333 328 322 317 306 289 276 269 264 255 245 244 240 234 231 224 219 217 211 202 200 204 203 199 193 189 193 195 193 195 197 198 199 197 199 196 192 196 196 186 183 185 183 186 193 192 190 191 191 192 193 185 184 193 190 182 183 178 173 179
59 55 47 33 29 24 19 19 19 22 25 23 20 18 16 13 9 6 1 356 352 350 344 342 343 341 337 333 328 315 300 288 278 271 262 251 244 240 237 233 229 226 221 212 204 202 203 204 202 196 191 195 195 191 190 189 189 195 197 197 195 194 199 196 185 181 184 183 186 191 191 189 190 190 190 191 187 185 190 188 183 182 178 175 176
60 59 46 31 30 23 17 17 17 18 20 17 17 17 13 9 8 8 4 357 352 348 344 345 348 346 344 342 338 326 311 299 289 282 272 260 250 245 242 239 235 232 225 214 205 203 203 204 203 200 197 199 196 191 192 191 189 192 194 193 193 198 201 192 182 181 181 182 185 188 188 188 189 190 190 189 186 185 188 187 182 182 177 173 174
63 59 41 32 30 20 15 14 13 14 10 7 10 13 12 11 9 9 6 0 354 350 350 352 353 351 348 344 340 332 320 306 295 291 285 274 264 255 251 245 237 234 229 218 207 206 204 201 201 204 204 199 187 179 182 189 193 191 188 188 192 197 198 188 181 182 180 182 185 185 185 186 187 189 187 185 182 182 186 185 181 181 176 170 171
62 56 40 31 24 16 16 15 12 11 7 6 9 12 15 14 9 8 6 1 355 354 356 358 358 356 351 346 340 334 327 316 306 302 296 286 275 267 261 251 242 238 232 222 211 206 200 194 198 204 202 190 175 168 172 181 188 187 186 189 190 191 190 183 181 181 179 180 181 181 181 183 187 188 183 180 178 179 180 177 176 175 169 167 170
64 56 44 32 22 19 19 16 13 11 9 8 9 13 17 16 13 10 5 358 353 351 354 359 1 358 352 348 344 340 333 324 319 318 312 299 284 274 262 249 242 239 235 230 218 201 183 180 191 199 199 189 175 166 166 175 184 185 186 186 182 182 183 179 177 175 173 174 174 175 179 182 186 185 180 177 175 176 176 170 169 169 165 167 170
67 57 50 35 26 24 19 18 16 10 9 9 7 11 15 15 15 10 3 1 358 354 357 5 7 2 355 352 353 353 350 343 340 337 335 325 298 279 262 248 247 242 235 230 208 183 174 176 183 190 197 191 181 171 166 173 184 184 179 174 171 175 176 173 171 167 165 165 164 168 177 181 184 183 180 178 176 174 172 164 165 169 168 171 174
78 67 54 37 32 26 17 15 13 8 10 11 7 8 11 11 12 8 4 6 5 2 4 9 10 7 2 0 3 6 8 8 8 5 4 358 331 311 283 259 258 244 230 220 197 187 185 179 175 181 192 188 182 176 170 175 185 182 173 169 167 168 169 168 167 163 159 155 152 164 175 176 177 178 176 175 175 174 176 173 174 179 178 176 178
76 65 50 39 35 27 14 7 3 5 13 13 10 10 9 7 7 4 6 10 9 8 9 10 10 9 8 9 11 14 17 18 20 23 25 23 14 10 342 272 261 220 206 205 199 195 189 182 179 182 189 189 182 177 172 178 189 184 174 168 166 166 167 168 167 162 159 156 151 153 160 165 171 171 168 168 170 171 175 178 180 185 186 183 181
77 66 55 46 35 23 12 3 357 1 7 9 9 9 6 4 6 7 11 16 17 16 14 12 12 12 13 14 16 20 23 22 23 24 25 28 34 44 46 322 302 180 180 180 183 185 186 188 186 184 193 202 189 180 176 180 186 185 179 174 169 167 169 170 168 164 160 157 154 150 152 162 168 165 163 164 163 158 158 157 156 158 162 168 171
89 75 64 49 33 21 11 1 356 356 358 4 9 6 3 7 12 15 16 19 23 23 20 17 15 13 13 16 18 24 28 27 27 27 28 31 43 68 86 75 93 143 159 166 176 181 180 182 183 188 200 201 188 180 178 176 180 185 184 178 170 167 168 167 164 160 157 156 154 152 154 158 157 153 154 157 152 145 139 132 126 123 125 133 142
96 82 67 50 34 21 8 359 355 352 357 10 13 7 7 15 21 22 21 21 25 27 25 21 17 12 11 13 17 23 29 32 33 34 37 39 48 73 89 93 107 123 130 143 154 157 161 169 175 186 196 192 181 176 174 173 179 186 182 172 165 163 159 155 154 154 155 155 153 152 151 149 147 146 148 147 143 140 134 125 118 117 121 129 131
86 77 65 51 40 27 8 354 351 357 11 19 13 7 14 22 25 28 28 26 27 28 26 22 16 12 12 14 17 22 28 34 37 39 42 44 47 62 84 96 106 113 114 115 115 114 119 132 150 169 182 180 170 165 165 170 178 183 179 166 157 152 142 136 140 144 144 140 143 152 151 146 147 151 151 148 142 138 133 126 119 115 118 123 121
81 77 68 61 52 37 11 352 359 18 26 21 13 13 23 27 27 29 30 29 28 29 27 22 17 14 13 14 18 22 27 33 38 41 45 49 49 52 68 89 102 107 105 102 101 101 100 101 108 125 146 156 154 150 152 161 170 174 175 163 151 145 135 128 126 128 134 134 136 142 142 141 150 155 155 151 144 137 134 130 125 119 116 114 113
83 83 78 70 58 44 24 12 24 35 32 26 25 26 32 33 28 28 30 28 27 28 26 22 19 17 14 17 21 23 27 32 37 42 45 48 52 51 50 69 95 104 101 98 99 99 97 94 90 92 106 121 125 127 134 145 155 157 158 152 145 138 129 128 128 129 139 143 143 143 143 145 149 151 151 149 144 140 143 141 135 129 123 117 117
78 80 79 71 61 53 43 33 33 35 32 33 38 39 41 38 32 30 31 29 26 27 26 24 23 22 20 22 26 27 29 33 37 41 44 46 50 54 53 63 83 93 95 95 94 94 92 88 83 82 90 102 107 113 128 143 154 156 148 139 142 141 135 133 134 136 140 144 146 149 149 147 146 146 148 150 147 144 144 144 140 134 131 131 133
71 69 71 71 63 54 47 35 29 31 32 34 43 48 47 42 37 36 34 28 26 29 31 30 30 30 29 28 31 33 35 38 40 40 43 46 48 53 58 65 74 83 90 92 90 88 87 84 84 86 87 91 94 99 118 140 154 157 146 127 121 131 134 126 118 124 130 134 137 140 141 141 142 145 151 156 152 143 134 131 133 133 135 140 147
67 62 67 77 72 60 52 38 27 29 32 36 47 54 51 46 44 40 34 28 27 33 38 38 38 40 39 37 41 44 43 42 43 45 46 47 48 50 54 60 65 73 84 88 88 86 85 83 84 87 86 85 86 86 94 120 142 151 149 138 122 126 137 135 115 111 117 120 121 124 130 135 139 143 148 154 154 149 141 138 141 145 146 144 144
62 60 62 75 77 68 60 47 32 28 31 38 50 58 55 50 46 41 35 33 35 39 45 46 45 47 46 46 51 57 56 49 47 51 51 48 49 53 55 58 62 68 77 82 84 83 82 80 80 81 81 82 83 85 88 93 100 106 118 131 130 134 147 145 128 117 114 115 115 118 124 130 137 140 140 140 140 142 144 141 139 143 146 140 133
57 54 50 64 77 71 60 48 37 31 31 38 52 60 60 54 48 41 38 41 43 45 50 52 52 53 53 52 55 60 63 63 61 61 60 55 53 56 57 58 61 66 70 72 75 77 77 74 71 70 72 75 79 84 88 89 92 96 100 112 122 126 133 135 126 118 116 117 119 119 120 125 131 132 128 124 123 122 121 120 119 124 135 135 129
61 54 50 68 81 78 68 57 44 38 39 44 54 59 59 54 48 43 43 47 48 50 54 55 57 58 59 58 58 59 62 66 68 69 67 63 61 61 59 57 60 65 68 68 70 73 72 69 67 64 63 67 72 77 83 85 86 91 98 108 117 122 127 131 126 121 120 121 121 118 117 119 121 119 116 114 112 109 107 109 113 118 124 124 120
52 55 67 77 78 75 72 64 51 45 46 50 53 56 57 54 51 49 51 53 52 54 57 58 58 60 62 63 62 59 60 62 65 69 70 67 65 63 60 58 61 65 68 69 71 73 71 68 66 64 61 62 66 71 76 79 80 82 85 87 91 99 114 122 118 115 115 115 115 115 116 117 114 113 112 108 104 103 104 110 119 122 117 110 107
55 67 83 87 83 79 75 66 58 54 53 53 53 55 56 56 55 56 57 57 58 59 61 60 60 60 61 61 61 59 58 59 60 63 67 67 67 67 63 60 60 63 65 68 70 71 71 69 67 65 64 64 65 66 69 73 78 80 81 81 83 87 95 102 104 106 107 108 110 115 119 119 117 114 110 107 105 106 110 118 126 128 125 117 111
72 78 88 90 87 85 80 72 66 62 60 58 57 56 56 57 58 60 59 59 60 61 62 63 62 62 60 59 60 59 58 59 60 61 63 64 66 68 67 63 60 60 62 64 65 66 67 69 68 68 67 67 66 65 64 68 76 82 85 86 88 91 94 97 100 103 104 105 110 117 118 116 116 114 112 111 112 114 118 122 123 124 124 121 121
77 77 88 93 89 84 78 73 70 66 64 63 59 56 56 56 59 63 62 61 59 59 62 64 64 64 63 61 62 63 62 62 63 64 63 62 61 64 66 65 64 63 63 64 64 66 68 69 69 68 66 66 65 62 62 64 69 78 86 87 87 90 92 93 96 98 98 101 108 114 115 115 118 118 115 111 111 114 115 112 107 104 104 102 106
72 71 82 92 92 87 81 76 73 70 67 64 61 58 56 56 60 65 65 63 62 60 61 64 64 65 66 64 64 66 67 66 67 66 65 63 61 61 64 65 65 66 67 67 66 67 67 69 69 66 63 61 59 56 57 60 62 67 73 75 76 81 83 85 91 92 90 104 123 129 130 130 128 123 117 109 105 104 103 103 104 100 93 90 92
77 77 82 90 94 93 88 82 78 73 69 66 62 58 57 58 62 67 67 66 67 65 63 63 63 63 65 66 66 67 68 69 72 72 69 66 64 64 65 65 65 65 67 69 68 67 66 68 69 69 67 66 64 62 60 61 64 67 70 73 77 81 81 87 100 104 101 130 145 142 137 133 128 122 115 110 104 98 96 103 109 102 91 94 101
95 90 87 88 89 88 84 80 78 75 71 68 62 57 57 58 60 66 69 68 68 69 68 67 65 61 61 65 67 68 68 69 72 74 76 74 70 68 66 65 65 66 68 70 72 73 72 71 71 71 71 71 71 73 73 73 73 75 79 84 91 101 109 118 132 138 136 138 141 135 124 119 116 109 103 97 91 91 92 96 101 99 95 99 100